Waarnemingen

Advertentie
Mijn weer
Estaca de Bares, Spanje (8004): temperatuur & dauwpunt: 17.05.2018 20:00:00 - 23.05.2018 20:00:00 (CEST)Estaca de Bares, Spanje (8004): windsnelheid & windstoten: 17.05.2018 20:00:00 - 23.05.2018 20:00:00 (CEST)Estaca de Bares, Spanje (8004): windrichting: 17.05.2018 20:00:00 - 23.05.2018 20:00:00 (CEST)Estaca de Bares, Spanje (8004): luchtdruk: 17.05.2018 20:00:00 - 23.05.2018 20:00:00 (CEST)Estaca de Bares, Spanje (8004): zicht: 17.05.2018 20:00:00 - 23.05.2018 20:00:00 (CEST)Estaca de Bares, Spanje (8004): Zonneschijnduur: 17.05.2018 20:00:00 - 23.05.2018 20:00:00 (CEST)Estaca de Bares, Spanje (8004): neerslag: 17.05.2018 20:00:00 - 23.05.2018 20:00:00 (CEST)
Datum & Tijd tt [°C] td [°C] ff [km/u] ff [kn] fx [km/u] fx [kn] dd ppp [hPa] vv [km] sd [min] rr [mm]
23.05.2018 20:00:00 - - - - - - - - - - -
23.05.2018 19:00:00 16,6 13,7 28 15 34 18 OZO 1014,6 3,2 60 0,0
23.05.2018 18:00:00 16,9 13,9 29 16 35 19 OZO 1014,7 3,2 54 0,0
23.05.2018 17:00:00 17,3 13,9 25 13 35 19 OZO 1015,1 3,3 56 0,0
23.05.2018 16:00:00 18,0 14,1 21 12 32 17 O 1015,2 2,9 60 0,0
23.05.2018 15:00:00 17,7 13,9 26 14 32 18 OZO 1015,5 3,3 60 0,0
23.05.2018 14:00:00 17,6 13,9 22 12 33 18 O 1015,8 2,9 59 -
23.05.2018 13:00:00 16,1 13,1 23 12 32 17 OZO 1016,2 3,0 22 0,0
23.05.2018 12:00:00 16,3 12,4 24 13 36 20 OZO 1016,0 2,9 58 0,0
23.05.2018 11:00:00 16,6 12,5 30 16 39 21 OZO 1015,8 3,3 59 0,0
23.05.2018 10:00:00 15,4 12,1 29 16 39 21 OZO 1015,8 3,5 18 0,0
23.05.2018 09:00:00 14,4 12,1 28 15 38 21 OZO 1015,6 3,3 1 0,0
23.05.2018 08:00:00 14,2 12,4 27 14 37 20 O 1015,5 3,0 0 -
23.05.2018 07:00:00 14,2 12,4 26 14 35 19 OZO 1015,1 2,0 0 0,0
23.05.2018 06:00:00 14,2 12,4 26 14 36 19 O 1015,0 2,4 0 0,0
23.05.2018 05:00:00 14,2 12,4 22 12 32 17 O 1015,1 2,1 0 0,0
23.05.2018 04:00:00 13,9 11,9 23 12 27 15 OZO 1015,3 2,7 0 0,0
23.05.2018 03:00:00 14,0 12,0 23 12 28 15 OZO 1015,6 2,8 0 0,0
23.05.2018 02:00:00 14,4 12,2 20 11 26 14 OZO 1015,9 2,9 0 -
23.05.2018 01:00:00 14,5 12,3 21 11 28 15 OZO 1016,2 3,0 0 0,0
23.05.2018 00:00:00 14,5 12,3 23 12 29 16 OZO 1016,3 3,3 0 0,0
22.05.2018 23:00:00 14,7 12,7 24 13 31 17 OZO 1016,0 2,6 0 0,0
22.05.2018 22:00:00 14,7 12,4 24 13 31 17 OZO 1015,4 2,7 29 0,0
22.05.2018 21:00:00 15,5 12,6 19 11 32 17 O 1015,3 2,4 60 0,0
22.05.2018 20:00:00 15,8 13,0 24 13 34 18 O 1015,0 2,5 42 -
22.05.2018 19:00:00 16,4 13,4 20 11 31 17 O 1014,8 2,9 10 0,0
22.05.2018 18:00:00 17,5 14,0 17 9 27 15 O 1014,8 2,8 55 0,0
22.05.2018 17:00:00 17,3 13,9 20 11 33 18 O 1014,6 3,0 51 0,0
22.05.2018 16:00:00 16,9 13,3 27 14 35 19 O 1014,5 2,9 60 0,0
22.05.2018 15:00:00 17,4 13,0 25 14 32 18 O 1014,4 3,2 60 0,0
22.05.2018 14:00:00 17,5 12,8 22 12 31 17 O 1014,3 3,1 60 -
22.05.2018 13:00:00 17,1 12,2 23 13 32 18 O 1014,4 3,2 60 0,0
22.05.2018 12:00:00 16,9 12,4 18 10 24 13 O 1014,5 2,9 60 0,0
22.05.2018 11:00:00 15,8 11,8 16 9 20 11 OZO 1014,6 3,4 53 0,0
22.05.2018 10:00:00 15,1 12,0 15 8 20 11 OZO 1014,3 3,4 15 0,0
22.05.2018 09:00:00 14,2 11,7 14 7 17 9 OZO 1013,8 3,4 0 0,0
22.05.2018 08:00:00 13,5 11,3 14 7 18 10 O 1013,3 3,5 0 -
22.05.2018 07:00:00 12,8 10,6 10 6 18 10 O 1012,9 3,5 0 0,0
22.05.2018 06:00:00 12,5 10,4 11 6 22 12 OZO 1012,3 3,4 0 0,0
22.05.2018 05:00:00 12,8 10,6 16 9 23 13 OZO 1012,0 3,3 0 0,0
22.05.2018 04:00:00 13,3 11,3 14 8 19 10 OZO 1012,2 3,4 0 0,0
22.05.2018 03:00:00 13,3 11,3 13 7 21 11 OZO 1012,3 3,2 0 0,0
22.05.2018 02:00:00 13,8 11,9 19 10 21 12 OZO 1012,5 3,2 0 -
22.05.2018 01:00:00 13,9 11,9 16 8 19 10 O 1012,7 2,3 0 0,0
22.05.2018 00:00:00 14,1 12,0 14 8 19 11 O 1012,8 2,9 0 0,0
21.05.2018 23:00:00 14,3 12,2 14 8 21 11 O 1012,5 2,7 0 0,0
21.05.2018 22:00:00 14,6 11,9 13 7 19 11 O 1012,0 2,8 29 0,0
21.05.2018 21:00:00 15,9 12,4 12 6 17 9 OZO 1011,5 3,3 60 0,0
21.05.2018 20:00:00 16,8 13,0 11 6 22 12 O 1011,3 3,2 60 -
21.05.2018 19:00:00 16,8 13,0 18 10 26 14 O 1010,9 3,5 60 0,0
21.05.2018 18:00:00 16,7 12,8 22 12 29 16 O 1010,6 3,2 60 0,0
21.05.2018 17:00:00 17,2 13,2 20 11 27 15 O 1010,5 3,4 60 0,0
21.05.2018 16:00:00 17,7 13,3 16 9 29 15 O 1010,5 3,2 60 0,0
21.05.2018 15:00:00 17,7 13,5 18 10 31 17 O 1010,4 3,0 60 0,0
21.05.2018 14:00:00 17,6 13,2 23 12 30 16 O 1010,6 3,1 60 -
21.05.2018 13:00:00 17,8 13,4 14 8 23 13 O 1010,8 2,9 60 0,0
21.05.2018 12:00:00 17,7 13,5 14 8 27 14 O 1010,8 3,2 60 0,0
21.05.2018 11:00:00 16,2 12,3 22 12 29 16 OZO 1010,6 3,3 60 0,0
21.05.2018 10:00:00 15,3 12,1 23 12 30 16 OZO 1010,4 3,3 47 0,0
21.05.2018 09:00:00 14,6 12,1 21 12 28 15 OZO 1009,9 3,1 12 0,0
21.05.2018 08:00:00 13,9 11,8 21 12 34 19 OZO 1009,8 2,9 0 -
21.05.2018 07:00:00 13,7 11,9 25 14 35 19 OZO 1009,3 3,0 0 0,0
21.05.2018 06:00:00 14,1 12,5 24 13 39 21 O 1009,3 2,1 0 0,0
21.05.2018 05:00:00 14,0 12,2 24 13 37 20 O 1009,5 2,0 0 0,0
21.05.2018 04:00:00 14,1 12,3 28 15 42 23 OZO 1009,9 2,3 0 0,0
21.05.2018 03:00:00 14,1 12,3 32 17 41 22 OZO 1010,4 2,8 0 0,0
21.05.2018 02:00:00 14,1 12,3 30 16 39 21 OZO 1011,0 2,7 0 -
21.05.2018 01:00:00 14,2 12,4 26 14 36 19 O 1011,6 2,2 0 0,0
21.05.2018 00:00:00 14,1 12,1 23 12 34 18 O 1012,1 2,7 0 0,0
20.05.2018 23:00:00 14,4 12,2 28 15 35 19 OZO 1012,3 3,1 0 0,0
20.05.2018 22:00:00 14,5 12,3 27 14 32 17 OZO 1012,0 2,9 25 0,0
20.05.2018 21:00:00 15,2 12,7 25 13 30 16 O 1012,1 2,7 51 0,0
20.05.2018 20:00:00 15,7 12,8 19 10 30 16 O 1012,3 3,0 13 -
20.05.2018 19:00:00 15,9 12,8 23 12 34 18 O 1012,7 3,0 60 0,0
20.05.2018 18:00:00 16,4 13,0 17 9 37 20 O 1013,0 3,0 60 0,0
20.05.2018 17:00:00 16,4 12,5 28 15 41 22 O 1013,2 3,0 60 0,0
20.05.2018 16:00:00 16,4 12,5 30 16 41 22 O 1013,9 3,4 60 0,0
20.05.2018 15:00:00 17,1 12,0 24 13 36 20 O 1014,5 3,3 60 0,0
20.05.2018 14:00:00 17,2 12,7 25 14 40 22 O 1014,9 3,1 56 -
20.05.2018 13:00:00 16,6 12,3 27 15 42 23 O 1015,2 3,0 57 0,0
20.05.2018 12:00:00 16,0 12,0 32 17 41 22 OZO 1015,5 3,1 60 0,0
20.05.2018 11:00:00 15,6 12,0 32 17 42 23 OZO 1015,6 3,2 60 0,0
20.05.2018 10:00:00 15,1 11,7 29 16 43 23 OZO 1015,8 3,5 50 0,0
20.05.2018 09:00:00 14,5 11,2 32 18 43 23 OZO 1015,8 3,5 58 0,0
20.05.2018 08:00:00 13,8 11,3 33 18 42 23 OZO 1016,0 3,2 6 -
20.05.2018 07:00:00 13,4 11,2 29 15 40 22 O 1015,9 3,3 0 0,0
20.05.2018 06:00:00 13,3 11,3 25 14 36 19 O 1016,1 3,0 0 0,0
20.05.2018 05:00:00 13,1 11,0 24 13 31 17 OZO 1016,2 3,3 0 0,0
20.05.2018 04:00:00 13,2 11,1 24 13 29 16 OZO 1016,4 3,4 0 0,0
20.05.2018 03:00:00 13,5 11,6 24 13 29 16 OZO 1017,1 3,3 0 0,0
20.05.2018 02:00:00 13,8 11,9 24 13 34 18 OZO 1017,5 3,2 0 -
20.05.2018 01:00:00 13,8 11,7 25 13 34 18 OZO 1017,9 3,4 0 0,0
20.05.2018 00:00:00 14,0 12,0 24 13 33 18 OZO 1018,1 3,0 0 0,0
19.05.2018 23:00:00 14,1 12,1 21 12 31 17 OZO 1018,0 2,8 0 0,0
19.05.2018 22:00:00 14,5 12,3 26 14 32 17 OZO 1017,5 2,8 29 0,0
19.05.2018 21:00:00 15,3 12,6 23 12 31 17 OZO 1017,4 2,8 60 0,0
19.05.2018 20:00:00 15,9 12,8 24 13 32 17 OZO 1017,5 3,0 60 -
19.05.2018 19:00:00 16,3 13,1 23 12 29 16 OZO 1017,9 3,1 60 0,0
19.05.2018 18:00:00 16,8 13,4 21 11 31 17 OZO 1017,9 3,0 60 0,0
19.05.2018 17:00:00 17,3 13,3 23 13 32 17 O 1017,9 3,4 60 0,0
19.05.2018 16:00:00 17,1 13,3 23 12 32 18 O 1018,2 3,0 60 0,0
19.05.2018 15:00:00 16,5 12,6 27 15 36 19 OZO 1018,5 2,8 60 0,0
19.05.2018 14:00:00 16,3 12,6 27 15 36 19 OZO 1018,6 3,0 60 -
19.05.2018 13:00:00 16,3 13,1 29 16 41 22 OZO 1018,6 3,2 60 0,0
19.05.2018 12:00:00 15,7 12,4 34 19 42 23 OZO 1018,5 3,1 58 0,0
19.05.2018 11:00:00 15,1 12,4 31 17 40 21 OZO 1018,6 2,5 10 0,0
19.05.2018 10:00:00 14,5 12,2 31 17 45 24 OZO 1018,6 2,4 0 0,0
19.05.2018 09:00:00 14,2 12,2 32 18 42 23 OZO 1018,3 2,6 0 0,0
19.05.2018 08:00:00 14,1 12,1 33 18 41 22 OZO 1017,8 2,6 0 -
19.05.2018 07:00:00 13,9 11,9 36 19 47 26 OZO 1017,4 2,8 0 0,0
19.05.2018 06:00:00 13,8 11,9 32 17 46 25 O 1017,4 2,6 0 0,0
19.05.2018 05:00:00 14,0 12,0 31 17 46 25 OZO 1017,2 2,5 0 0,0
19.05.2018 04:00:00 14,1 12,1 37 20 48 26 OZO 1017,1 2,7 0 0,0
19.05.2018 03:00:00 14,2 12,1 33 18 46 25 OZO 1017,8 2,7 0 0,0
19.05.2018 02:00:00 14,3 12,0 32 17 51 28 O 1018,1 2,8 0 -
19.05.2018 01:00:00 14,4 12,1 37 20 56 31 OZO 1018,1 2,8 0 0,0
19.05.2018 00:00:00 14,4 12,1 32 18 48 26 O 1018,4 2,9 0 0,0
18.05.2018 23:00:00 14,4 12,2 31 17 49 27 O 1018,1 2,7 0 0,0
18.05.2018 22:00:00 14,2 11,9 36 19 53 28 O 1017,7 3,0 0 0,0
18.05.2018 21:00:00 14,4 12,1 33 18 47 26 O 1017,4 2,9 0 0,0
18.05.2018 20:00:00 14,9 12,4 29 15 41 22 O 1017,4 2,7 4 -
18.05.2018 19:00:00 15,1 12,4 28 15 40 21 O 1017,6 2,8 4 0,0
18.05.2018 18:00:00 15,3 12,6 29 16 41 22 O 1017,6 2,6 41 0,0
18.05.2018 17:00:00 15,8 12,7 30 16 40 22 O 1017,5 2,7 59 0,0
18.05.2018 16:00:00 15,7 12,8 30 16 40 22 ONO 1017,5 2,5 22 0,0
18.05.2018 15:00:00 15,3 12,6 29 16 36 20 ONO 1017,8 2,6 0 0,0
18.05.2018 14:00:00 14,7 12,4 29 16 37 20 ONO 1018,3 2,3 0 -
18.05.2018 13:00:00 14,4 12,2 29 16 40 22 ONO 1018,8 2,0 0 0,0
18.05.2018 12:00:00 14,2 12,1 35 19 44 24 ONO 1018,8 2,0 0 0,0
18.05.2018 11:00:00 14,5 12,3 29 16 38 20 O 1018,6 2,4 0 0,0
18.05.2018 10:00:00 14,2 12,1 28 15 39 21 O 1018,8 2,0 0 0,0
18.05.2018 09:00:00 13,6 11,7 22 12 32 17 O 1018,5 2,6 0 0,0
18.05.2018 08:00:00 13,1 11,1 21 12 29 16 OZO 1018,5 1,8 0 -
18.05.2018 07:00:00 13,5 11,0 22 12 33 18 OZO 1018,1 2,3 0 0,0
18.05.2018 06:00:00 13,9 11,4 29 15 36 19 O 1017,7 2,4 0 0,0
18.05.2018 05:00:00 13,9 11,1 21 11 34 18 O 1017,8 2,8 0 0,0
18.05.2018 04:00:00 13,8 11,1 29 15 37 20 O 1017,7 2,8 0 0,0
18.05.2018 03:00:00 14,0 11,7 31 17 36 19 ONO 1017,7 2,4 0 0,0
18.05.2018 02:00:00 14,3 11,8 25 14 34 18 O 1018,2 2,2 0 -
18.05.2018 01:00:00 14,0 11,3 26 14 31 17 O 1018,3 2,7 0 0,0
18.05.2018 00:00:00 13,9 11,1 19 10 27 14 OZO 1018,3 2,9 0 0,0
17.05.2018 23:00:00 13,8 11,1 22 12 30 16 OZO 1018,1 2,8 0 0,0
17.05.2018 22:00:00 13,7 10,9 24 13 36 19 OZO 1017,3 3,1 0 0,0
17.05.2018 21:00:00 13,8 11,0 26 14 33 18 OZO 1017,2 2,9 0 0,0
17.05.2018 20:00:00 14,1 10,5 18 10 29 16 O 1017,6 3,0 16 -

tt = temperatuur
td = dauwpunt
ff = windsnelheid
fx = windstoten
dd = windrichting
ppp = luchtdruk
vv = zicht
sd = Zonneschijnduur
rr = neerslag

Weerstations in de omgeving